ASTRA 5B

Last updated on Oct. 31, 2020, 5:53 a.m. UTC

1 39617U 14011B   20304.79993953  .00000160  00000-0  00000-0 0  9993
2 39617   0.0558 304.9531 0004451 263.0400 151.1152  1.00275546 24057
UTC
Height (km)
Latitude
Longitude
Inclination
Orbital Period
UTC large
Height (km)
Speed (km/s)
/
Latitude / Longitude
Inclination (degrees)
Orbital Period (minutes)
Azimuth
Elevation
Range (km)
Doppler Factor
iOS Compass Heading
iOS Angle

Next 30 passes for location: Hong Kong

Rise time Rise Azimuth (degrees) Set time Set Azimuth (degrees) Duration Max altitude (degrees)

No matching passes for this satellites